Regional Weather Roundup
Issued by NWS Charleston, WV

Home | Current Version | Previous Version | Text Only | Print | Product List | Glossary On
Versions: 1 2 3 4 5 6 7 8 9 10 11 12 13 14 15 16 17 18 19 20 21 22 23 24 25 26 27 28 29 30 31 32 33 34 35 36 37 38 39 40 41 42 43 44 45 46 47 48 49 50
000
ASUS41 KRLX 200910
RWRRLX
West Virginia Regional Weather Roundup
National Weather Service Charleston WV
500 AM EDT MON OCT 20 2014

Note: "fair" indicates few or no clouds below 12,000 feet with no
significant weather and/or obstructions to visibility.

WVZ003-201000-
Northern Panhandle of West Virginia

CITY           SKY/WX    TMP DP  RH WIND       PRES   REMARKS
WHEELING       CLOUDY    43  35  73 S7        30.03F
$$

WVZ009-201000-
Northwest West Virginia

CITY           SKY/WX    TMP DP  RH WIND       PRES   REMARKS
PARKERSBURG    CLOUDY    41  37  86 CALM      30.08S
$$

WVZ006-201000-
Western West Virginia

CITY           SKY/WX    TMP DP  RH WIND       PRES   REMARKS
HUNTINGTON     MOCLDY    39  38  96 E3        30.06S
$$

WVZ015-201000-
West Central West Virginia

CITY           SKY/WX    TMP DP  RH WIND       PRES   REMARKS
CHARLESTON     PTCLDY    37  36  96 CALM      30.07S
$$

WVZ022-031-201000-
North Central West Virginia

CITY           SKY/WX    TMP DP  RH WIND       PRES   REMARKS
CLARKSBURG     CLOUDY    37  36  96 CALM      30.06F
MORGANTOWN     CLOUDY    42  36  79 SW3       30.07S
$$

WVZ025-035-042-045-201000-
Southern West Virginia

CITY           SKY/WX    TMP DP  RH WIND       PRES   REMARKS
BECKLEY        MOCLDY    37  33  85 E3        30.07R
LOGAN            N/A     41  39  93 CALM      30.06S
BLUEFIELD      PTCLDY    48  31  51 CALM      30.07S
LEWISBURG      MOCLDY    34  32  94 NE3       30.08S
$$

WVZ047-201000-
Northern Mountains of West Virginia

CITY           SKY/WX    TMP DP  RH WIND       PRES   REMARKS
ELKINS         FOG       31  31 100 CALM      30.09F VSB 1/4
$$

WVZ052-201000-
Eastern Panhandle of West Virginia

CITY           SKY/WX    TMP DP  RH WIND       PRES   REMARKS
MARTINSBURG    PTCLDY    36  32  85 CALM      30.09S
PETERSBURG     MOCLDY   N/A N/A N/A CALM      30.10S
$$


USA.gov is the U.S. government's official web portal to all federal, state and local government web resources and services.